Regional Weather Roundup
Issued by NWS

Home | Current Version | Previous Version | Text Only | Print | Product List | Glossary Off
Versions: 1 2 3 4 5 6 7 8 9 10 11 12 13 14 15 16 17 18 19 20 21 22 23 24 25 26 27 28 29 30 31 32 33 34 35 36 37 38 39 40 41 42 43 44 45 46 47 48 49 50

047
ASUS43 KOAX 221502
RWRNE

WEATHER ROUNDUP FOR NEBRASKA
NATIONAL WEATHER SERVICE OMAHA NE
1000 AM CDT SAT JUL 22 2017

NOTES: SATELLITE DATA IS BEING USED TO AUGMENT CLOUD COVER ABOVE
       12000 FEET.
       "FAIR" INDICATES FEW OR NO CLOUDS BELOW 12,000 FEET WITH NO
       SIGNIFICANT WEATHER AND/OR OBSTRUCTIONS TO VISIBILITY.


NEZ001>004-019>022-054>056-221600-
NEBRASKA PANHANDLE

CITY           SKY/WX    TMP DP  RH WIND       PRES   REMARKS
SCOTTSBLUFF    SUNNY     76  55  48 NW5       30.11R
ALLIANCE       MOSUNNY   78  55  44 NE5       30.10R
CHADRON        MOSUNNY   79  51  37 SW3       30.04S
GORDON         FAIR      78  58  50 NE3       30.06R
KIMBALL        SUNNY     79  52  38 NW7       30.18R
SIDNEY         MOSUNNY   78  55  44 SE3       30.15R
$$

NEZ057>060-069>072-079>082-221600-
SOUTHWEST NEBRASKA

CITY           SKY/WX    TMP DP  RH WIND       PRES   REMARKS
NORTH PLATTE   CLOUDY    79  66  64 NW6       30.01R
IMPERIAL       CLOUDY    76  58  53 NW6       30.07R
LEXINGTON      MOSUNNY   80  68  67 NE10      29.96R
MCCOOK         SUNNY     88  63  43 N12       29.99R
OGALLALA       LGT RAIN  73  62  68 W5        30.07R
$$

NEZ005>010-023>029-035>040-094-221600-
NORTH CENTRAL NEBRASKA

CITY           SKY/WX    TMP DP  RH WIND       PRES   REMARKS
VALENTINE      CLOUDY    85  58  39 W8        29.99R
AINSWORTH      CLOUDY    75  67  77 CALM      29.99S
BROKEN BOW     CLOUDY    82  68  62 NE10      29.97S
O`NEILL        MOSUNNY   76  76  97 W3        29.96R FOG
ORD            MOSUNNY   81  72  74 N8        29.93S
THEDFORD       CLOUDY    79  67  66 NE3       30.02R
$$

NEZ041-046>049-061>064-073>077-083>087-221600-
SOUTH CENTRAL NEBRASKA

CITY           SKY/WX    TMP DP  RH WIND       PRES   REMARKS
GRAND ISLAND   PTSUNNY   77  75  93 NE10      29.92S
AURORA         CLOUDY    75  75  99 N7        29.91S FOG
HASTINGS       MOSUNNY   79  71  76 N8        29.93R
HEBRON         SUNNY     86  73  64 N6        29.87R HX  93
HOLDREGE       MOSUNNY   81  68  64 NE13G18   29.94R
KEARNEY        MOSUNNY   79  72  79 NE13      29.93S
YORK           CLOUDY    77  77 100 N14       29.90R FOG
$$

NEZ011>018-030>034-042>045-221600-
NORTHEAST NEBRASKA

CITY           SKY/WX    TMP DP  RH WIND       PRES   REMARKS
NORFOLK        CLOUDY    81  73  76 NW6       29.90R
ALBION         CLOUDY    81  76  85 N7        29.92S
BLAIR          CLOUDY    78  76  94 NW14      29.87S FOG
COLUMBUS       PTSUNNY   81  76  84 N7        29.89F
FREMONT        CLOUDY    79  75  90 N6        29.88F
TEKAMAH        CLOUDY    80  74  81 NW5       29.86S
WAYNE          CLOUDY    81  80  94 NW5       29.89S HX  91
$$

NEZ050>053-065>068-078-088>093-221600-
SOUTHEAST NEBRASKA

CITY           SKY/WX    TMP DP  RH WIND       PRES   REMARKS
LINCOLN        CLOUDY    81  77  88 N14       29.86R
OMAHA EPPLEY   CLOUDY    81  75  82 NW12      29.84R
BEATRICE       SUNNY     86  76  72 NE3       29.84F HX  97
NEBRASKA CITY  SUNNY     84  79  85 N5        29.82S HX  95
PLATTSMOUTH    SUNNY     84  77  79 NW10      29.84R HX  94
$$

NEZ044-045-051>053-067-221600-
OMAHA AREA

CITY           SKY/WX    TMP DP  RH WIND       PRES   REMARKS
OMAHA EPPLEY   CLOUDY    81  75  82 NW12      29.84R
BLAIR          CLOUDY    78  76  94 NW14      29.87S FOG
FREMONT        CLOUDY    79  75  90 N6        29.88F
MILLARD        CLOUDY    82  78  90 NW10      29.85R HX  91
OFFUTT AFB     SUNNY     86  77  74 NW14      29.83R HX  96
PLATTSMOUTH    SUNNY     84  77  79 NW10      29.84R HX  94
WAHOO          CLOUDY    77  76  96 N9        29.87R FOG
$$




USA.gov is the U.S. government's official web portal to all federal, state and local government web resources and services.